Location: Home
(42.5358°N, 72.7383°W)
Time: 12:59:05
(UTC-05:00)

A-11 Canister half - Pass Details

Date: 01 December 2021
Orbit: 1524 x 1684 km, 47.3° (Epoch: 26 January)

Event Time Altitude Azimuth Distance (km) Brightness Sun altitude
Rises 01:00:49 0° 214° (SW) 4,916 - -63.3°
Reaches altitude 10° 01:04:06 10° 209° (SSW) 3,936 - -62.9°
Maximum altitude 01:13:40 49° 138° (SE) 2,080 - -61.5°
Exits shadow 01:21:19 17° 73° (ENE) 3,392 11.0 -60.4°
Drops below altitude 10° 01:23:09 10° 68° (ENE) 3,912 11.4 -60.2°
Sets 01:26:23 0° 64° (ENE) 4,885 12.1 -59.7°
